EW9392 Weather Reports


time (UTC)temp
C
wind
direction
speed
KPH
gust
KPH
rain 1hr
cm
rain 24hr
cm
rain mn
cm
humidity
%
barometer
mb
20260510193042 22 112 0.0 16.1 1.07 1.24 1.07 90 1017.3
20260510191541 26 359 11.3 35.4 0.41 0.58 0.41 87 1017.4
20260510190042 27 359 0.0 4.8 0.00 0.18 0.00 78 1016.7
20260510184542 27 359 1.6 12.9 0.00 0.18 0.00 75 1016.3
20260510183038 28 359 0.0 8.0 0.00 0.18 0.00 75 1016.8
20260510181538 28 25 0.0 8.0 0.00 0.18 0.00 74 1016.9
20260510180043 28 359 1.6 19.3 0.00 0.18 0.00 69 1017.0
20260510174537 31 359 0.0 0.0 0.00 0.18 0.00 58 1016.9
20260510173038 31 359 0.0 0.0 0.00 0.18 0.00 59 1017.1
20260510171546 32 359 0.0 0.0 0.00 0.18 0.00 57 1017.2
20260510170036 31 359 0.0 1.6 0.00 0.18 0.00 57 1017.3
20260510164530 31 359 0.0 1.6 0.00 0.18 0.00 62 1017.5
20260510163027 30 359 0.0 1.6 0.00 0.18 0.00 64 1017.7
20260510161526 30 55 0.0 1.6 0.00 0.18 0.00 66 1017.8
20260510160024 30 359 0.0 1.6 0.00 0.18 0.00 66 1017.7
20260510154522 29 359 0.0 1.6 0.00 0.18 0.00 69 1017.8
20260510153033 29 37 0.0 0.0 0.00 0.18 0.00 70 1017.9
20260510151527 29 359 0.0 0.0 0.00 0.18 0.00 69 1017.8
20260510150015 29 359 0.0 0.0 0.00 0.18 0.00 70 1017.7
20260510144512 28 359 0.0 3.2 0.00 0.18 0.00 73 1017.6
20260510143008 27 359 0.0 1.6 0.00 0.18 0.00 76 1017.7
20260510141505 26 359 0.0 0.0 0.00 0.18 0.00 81 1017.6
20260510140001 26 359 0.0 1.6 0.00 0.18 0.00 83 1017.3
20260510134558 25 359 0.0 8.0 0.00 0.18 0.00 86 1017.3
20260510133054 25 359 0.0 8.0 0.00 0.18 0.00 89 1017.2
20260510131551 24 359 3.2 8.0 0.00 0.18 0.00 92 1017.2
20260510130051 23 359 3.2 12.9 0.00 0.18 0.00 94 1017.0
20260510124558 23 359 0.0 6.4 0.00 0.18 0.00 95 1017.0
20260510123041 23 359 0.0 9.7 0.00 0.18 0.00 95 1016.8
20260510121541 22 359 1.6 6.4 0.00 0.18 0.00 96 1016.7
20260510120037 22 359 0.0 0.0 0.00 0.18 0.00 96 1016.4
20260510114535 22 359 0.0 0.0 0.00 0.18 0.00 96 1016.3
20260510113036 22 359 0.0 0.0 0.00 0.18 0.00 96 1016.1
20260510111530 22 359 0.0 0.0 0.00 0.18 0.00 96 1015.9
20260510110037 22 359 0.0 0.0 0.00 0.18 0.00 96 1015.8
20260510104525 22 359 0.0 8.0 0.00 0.18 0.00 96 1015.6
20260510103024 22 359 0.0 4.8 0.00 0.18 0.00 96 1015.3
20260510101532 22 359 0.0 4.8 0.00 0.18 0.00 96 1015.1
20260510100025 22 359 0.0 0.0 0.00 0.18 0.00 96 1015.0
20260510094525 22 359 0.0 1.6 0.00 0.18 0.00 96 1014.9
20260510093021 22 359 0.0 3.2 0.00 0.18 0.00 96 1014.8
20260510091527 22 359 0.0 8.0 0.00 0.18 0.00 96 1014.8
20260510090025 22 359 0.0 4.8 0.00 0.18 0.00 95 1014.4
20260510084519 22 184 0.0 3.2 0.00 0.18 0.00 95 1014.3
20260510083017 22 359 0.0 3.2 0.00 0.18 0.00 95 1014.4
20260510081516 22 359 0.0 1.6 0.00 0.18 0.00 94 1014.5
20260510080019 22 214 0.0 0.0 0.00 0.18 0.00 94 1014.6
20260510074515 22 208 0.0 0.0 0.00 0.18 0.00 94 1014.6
20260510073013 23 158 0.0 0.0 0.00 0.18 0.00 93 1014.6
20260510071518 23 139 0.0 0.0 0.00 0.18 0.00 93 1014.7
20260510070014 23 137 0.0 0.0 0.00 0.18 0.00 93 1014.8
20260510064525 23 136 0.0 0.0 0.00 0.18 0.00 93 1015.0
20260510063008 23 136 0.0 0.0 0.00 0.18 0.00 93 1015.2
20260510061515 23 135 0.0 0.0 0.00 0.18 0.00 93 1015.4
20260510060007 23 128 0.0 0.0 0.00 0.18 0.00 92 1015.5
20260510054502 23 118 0.0 0.0 0.00 0.18 0.00 92 1015.7
20260510053102 23 359 0.0 0.0 0.00 0.18 0.00 92 1015.9
20260510051603 23 359 0.0 0.0 0.00 0.18 0.00 92 1016.0
20260510050058 23 359 0.0 0.0 0.00 0.18 0.00 91 1016.0
20260510044555 23 359 0.0 0.0 0.00 0.18 0.00 91 1016.2
20260510043051 23 359 0.0 0.0 0.00 0.18 0.00 91 1016.2
20260510041551 23 359 0.0 0.0 0.00 0.18 0.00 91 1016.3
20260510040048 23 359 0.0 0.0 0.00 0.18 0.00 91 1016.3
20260510034549 23 359 0.0 0.0 0.00 0.18 0.18 91 1016.2
20260510033055 23 282 0.0 0.0 0.00 0.18 0.18 90 1016.3
20260510031546 23 280 0.0 0.0 0.00 0.18 0.18 90 1016.3
20260510030046 23 280 0.0 0.0 0.00 0.18 0.18 90 1016.2
20260510024546 23 244 0.0 0.0 0.00 0.18 0.18 90 1016.2
20260510023044 23 127 0.0 0.0 0.00 0.18 0.18 90 1016.2
20260510021546 23 35 0.0 0.0 0.00 0.18 0.18 90 1016.2
20260510020042 23 359 0.0 1.6 0.00 0.18 0.18 90 1016.1
20260510014543 23 359 0.0 0.0 0.00 0.18 0.18 90 1015.8
20260510013040 23 359 0.0 0.0 0.00 0.18 0.18 90 1015.8
20260510011541 23 359 0.0 1.6 0.00 0.18 0.18 89 1015.5
20260510010041 23 359 0.0 0.0 0.00 0.18 0.18 88 1015.6
20260510004539 23 359 0.0 0.0 0.00 0.18 0.18 89 1015.3
20260510003054 23 359 0.0 3.2 0.00 0.18 0.18 90 1014.9
20260510001640 24 12 0.0 1.6 0.00 0.18 0.18 90 1014.9
20260510000039 24 359 0.0 3.2 0.00 0.18 0.18 89 1014.6
20260509234543 24 359 0.0 1.6 0.00 1.63 0.18 89 1014.5
20260509233038 24 39 0.0 4.8 0.00 1.63 0.18 89 1014.5
20260509231537 24 23 0.0 1.6 0.13 1.63 0.18 88 1014.4
20260509230041 24 50 0.0 1.6 0.15 1.63 0.18 87 1014.2
20260509224546 24 55 0.0 1.6 0.15 1.63 0.18 87 1014.1
20260509223039 24 359 0.0 1.6 0.15 1.63 0.18 87 1014.2
20260509221535 24 34 0.0 3.2 0.03 1.50 0.05 85 1014.4
20260509220034 24 359 0.0 4.8 0.00 1.45 0.03 83 1014.4
20260509214539 25 359 0.0 16.1 0.03 1.45 0.03 81 1014.2
20260509213034 25 359 3.2 22.5 0.03 1.45 0.03 80 1014.1
20260509211534 25 359 0.0 14.5 0.03 1.45 0.03 83 1013.5
20260509210032 25 359 0.0 4.8 0.03 1.45 0.03 83 1013.3
20260509204533 26 359 3.2 29.0 0.00 1.42 0.00 78 1013.7
20260509203036 27 14 3.2 22.5 0.00 1.42 0.00 76 1013.4
20260509201532 27 52 0.0 11.3 0.00 1.42 0.00 76 1013.0
20260509200031 27 99 4.8 16.1 0.00 1.42 0.00 77 1012.8
20260509194532 28 45 3.2 12.9 0.00 1.42 0.00 76 1012.9